sat.trackr.live / text

‹ back to catalog

STARLINK-5232

NORAD 55675 · 2023-021AZ

PAYLOAD ACTIVE UNKNOWN

§ Identity

Operator
Country
US
Launch date
2023-02-17
Launch site
AFWTR
Launch vehicle
Mass (kg)
RCS (m²)

Purposes: comms

External: N2YO · Heavens-Above · Gunter

§ Orbital elements

Epoch: 2026-09-20T15:47:14.492832Z

Period
96.11 min
Inclination
69.9982°
Eccentricity
0.0004048
Mean motion
14.98339794 rev/d
Perigee alt
569.2 km
Apogee alt
574.8 km
Semi-major
6,950.2 km
B*
1.4471e-4
RAAN
32.6769°
Arg perigee
281.0563°
Mean anomaly
79.0141°
Rev number
19,849

§ Raw data

STARLINK-52321 55675U 23021AZ  26263.65780663  .00001634  00000+0  14471-3 0  99992 55675  69.9982  32.6769 0004048 281.0563  79.0141 14.98339794198497

JSON: /api/v1/satellites/55675 · /tle

For live sub-satellite position, see the globe view (requires WebGL).

§ Visibility from observer

Set your observer location to see the next 7 days of passes ≥ 10°. The values pass through the URL so the page stays shareable.

No JS? Fill the form by hand. The geolocation button needs JavaScript.